GLENN Weather Reports


time (UTC)temp
C
wind
direction
speed
KPH
gust
KPH
rain 1hr
cm
rain 24hr
cm
rain mn
cm
humidity
%
barometer
mb
20260506204508 14 215 1.6 9.7 0.00 0.00 0.00 36 1015.3
20260506203008 13 101 0.0 11.3 0.00 0.00 0.00 33 1015.6
20260506201517 12 42 1.6 16.1 0.00 0.00 0.00 32 1015.7
20260506200021 12 121 3.2 11.3 0.00 0.00 0.00 33 1016.0
20260506194526 11 76 3.2 12.9 0.00 0.00 0.00 33 1016.2
20260506193010 11 304 6.4 8.0 0.00 0.00 0.00 31 1016.5
20260506191528 11 10 0.0 3.2 0.00 0.00 0.00 35 1016.6
20260506190019 10 154 4.8 12.9 0.00 0.00 0.00 31 1016.7
20260506184540 10 329 3.2 12.9 0.00 0.00 0.00 27 1017.0
20260506183037 10 278 6.4 12.9 0.00 0.00 0.00 30 1017.2
20260506181515 9 272 1.6 9.7 0.00 0.00 0.00 24 1017.4
20260506180016 9 241 4.8 14.5 0.00 0.00 0.00 25 1017.5
20260506174525 8 73 1.6 8.0 0.00 0.00 0.00 29 1017.6
20260506173025 8 336 3.2 9.7 0.00 0.00 0.00 32 1017.8
20260506171528 8 360 3.2 9.7 0.00 0.00 0.00 31 1018.0
20260506170014 7 180 3.2 12.9 0.00 0.00 0.00 33 1018.2
20260506164523 7 352 1.6 12.9 0.00 0.00 0.00 35 1018.3
20260506163025 7 310 4.8 12.9 0.00 0.00 0.00 38 1018.3
20260506161525 6 76 1.6 6.4 0.00 0.00 0.00 38 1018.5
20260506160026 6 344 4.8 8.0 0.00 0.00 0.00 39 1018.5
20260506154520 6 84 1.6 9.7 0.00 0.00 0.00 42 1018.6
20260506153022 5 234 1.6 6.4 0.00 0.00 0.00 42 1018.7
20260506151507 5 333 1.6 6.4 0.00 0.00 0.00 47 1018.8
20260506150010 3 302 1.6 6.4 0.00 0.00 0.00 58 1018.9
20260506144519 3 352 3.2 6.4 0.00 0.00 0.00 58 1019.0
20260506143022 2 323 1.6 3.2 0.00 0.00 0.00 60 1019.1
20260506141503 2 335 1.6 3.2 0.00 0.00 0.00 63 1019.1
20260506140009 2 44 0.0 4.8 0.00 0.00 0.00 56 1019.2
20260506134510 1 108 3.2 4.8 0.00 0.00 0.00 63 1019.2
20260506133018 0 104 4.8 6.4 0.00 0.00 0.00 64 1019.1
20260506131529 -1 108 4.8 4.8 0.00 0.00 0.00 69 1019.0
20260506130005 -1 109 4.8 6.4 0.00 0.00 0.00 69 1019.1
20260506124509 -2 122 4.8 6.4 0.00 0.00 0.00 69 1019.0
20260506123017 -2 99 4.8 6.4 0.00 0.00 0.00 69 1018.8
20260506121520 -2 114 3.2 4.8 0.00 0.00 0.00 70 1018.9
20260506120026 -2 105 4.8 6.4 0.00 0.00 0.00 69 1018.8
20260506114518 -2 107 6.4 9.7 0.00 0.00 0.00 73 1018.8
20260506113024 -2 154 8.0 9.7 0.00 0.00 0.00 70 1018.8
20260506111517 -2 137 6.4 6.4 0.00 0.00 0.00 73 1018.8
20260506110021 -2 119 6.4 9.7 0.00 0.00 0.00 71 1019.0
20260506104525 -2 115 6.4 6.4 0.00 0.00 0.00 72 1019.1
20260506103012 -2 125 6.4 6.4 0.00 0.00 0.00 73 1019.1
20260506101516 -2 136 6.4 6.4 0.00 0.00 0.00 71 1019.1
20260506100020 -2 121 4.8 6.4 0.00 0.00 0.00 71 1019.0
20260506094521 -1 123 3.2 6.4 0.00 0.00 0.00 69 1019.2
20260506093025 -1 107 4.8 6.4 0.00 0.00 0.00 68 1019.3
20260506091508 -1 105 3.2 4.8 0.00 0.00 0.00 68 1019.3
20260506090021 0 107 3.2 4.8 0.00 0.00 0.00 67 1019.3
20260506084521 -1 118 3.2 4.8 0.00 0.00 0.00 68 1019.2
20260506083023 -1 109 4.8 6.4 0.00 0.00 0.00 66 1019.1
20260506081530 0 98 3.2 4.8 0.00 0.00 0.00 66 1019.1
20260506073020 -1 111 1.6 4.8 0.00 0.00 0.00 66 1019.3
20260506071525 0 67 0.0 4.8 0.00 0.00 0.00 67 1019.3
20260506061505 0 134 3.2 6.4 0.00 0.00 0.00 65 1019.2
20260506044510 0 69 0.0 3.2 0.00 0.00 0.00 58 1019.4
20260506043015 1 83 3.2 4.8 0.00 0.00 0.00 57 1019.3
20260506041518 1 18 0.0 6.4 0.00 0.00 0.00 53 1019.2
20260506040025 2 85 1.6 8.0 0.00 0.00 0.00 51 1019.2
20260506034517 2 309 4.8 12.9 0.00 0.00 0.00 49 1019.0
20260506033011 2 250 4.8 11.3 0.00 0.00 0.00 56 1018.8
20260506031515 2 280 1.6 14.5 0.00 0.00 0.00 49 1018.8
20260506030033 2 84 4.8 16.1 0.00 0.00 0.00 46 1018.4
20260506024550 3 33 3.2 12.9 0.00 0.00 0.00 43 1018.1
20260506023013 3 26 3.2 6.4 0.00 0.00 0.00 45 1017.9
20260506021516 4 91 4.8 12.9 0.00 0.00 0.00 44 1017.7
20260506020016 5 331 0.0 6.4 0.00 0.00 0.00 43 1017.5
20260506014524 5 74 0.0 12.9 0.00 0.00 0.00 46 1017.1
20260506013037 5 360 4.8 22.5 0.00 0.00 0.00 45 1017.0
20260506011510 4 31 1.6 11.3 0.00 0.00 0.00 49 1017.0
20260506010021 4 352 4.8 11.3 0.00 0.00 0.00 48 1016.7
20260506004520 5 40 6.4 17.7 0.00 0.00 0.00 47 1016.6
20260506003033 5 134 3.2 22.5 0.00 0.00 0.00 50 1016.6
20260506001527 5 48 6.4 17.7 0.00 0.00 0.00 48 1016.3
20260506000013 5 80 3.2 14.5 0.00 0.00 0.00 47 1016.3
20260505234517 6 69 9.7 17.7 0.00 0.00 0.00 44 1016.2
20260505233021 7 39 1.6 6.4 0.00 0.00 0.00 44 1016.1
20260505231525 7 67 0.0 6.4 0.00 0.00 0.00 43 1016.0
20260505230041 7 342 8.0 17.7 0.00 0.00 0.00 37 1015.9
20260505224515 7 352 4.8 24.1 0.00 0.00 0.00 39 1015.9
20260505223020 8 267 4.8 24.1 0.00 0.00 0.00 36 1015.8
20260505221528 8 298 12.9 17.7 0.00 0.00 0.00 37 1015.7
20260505220026 8 21 6.4 19.3 0.00 0.00 0.00 40 1015.9
20260505214527 7 326 9.7 22.5 0.00 0.00 0.00 41 1015.8
20260505213021 7 307 9.7 35.4 0.00 0.00 0.00 40 1015.6
20260505211505 8 287 6.4 16.1 0.00 0.00 0.00 42 1015.9
20260505210006 8 321 4.8 11.3 0.00 0.00 0.00 40 1016.1